Overview Statistics Trail Chart Weather Telemetry Raw packets
 

This is the latest recevied weather packets stored in our database for station/object NB9X. If no packets are shown the sender has not sent any weather packets the latest 10 day(s).

<< 53 54 55 56 57 58 59 >>
Time Temp. Humidity Pressure Rain* Wind** Luminosity Snow
1788288866 33.33° C 100% 1014.1 hPa 0 mm - - -
1788288566 33.89° C 100% 1014.1 hPa 0 mm - - -
1788288266 33.89° C 100% 1014.2 hPa 0 mm - - -
1788287966 35.56° C 100% 1014.3 hPa 0 mm - - -
1788287666 35° C 100% 1014.3 hPa 0 mm - - -
1788287366 35° C 100% 1014.5 hPa 0 mm - - -
1788287066 34.44° C 100% 1014.6 hPa 0 mm - - -
1788286766 34.44° C 100% 1014.8 hPa 0 mm - - -
1788286466 34.44° C 100% 1014.9 hPa 0 mm - - -
1788286166 32.78° C 100% 1015 hPa 0 mm - - -
1788285866 33.33° C 100% 1015.1 hPa 0 mm - - -
1788285566 33.33° C 100% 1015.1 hPa 0 mm - - -
1788285266 33.89° C 100% 1015.1 hPa 0 mm - - -
1788284966 35.56° C 100% 1015.1 hPa 0 mm - - -
1788284666 34.44° C 100% 1015 hPa 0 mm - - -
1788284366 33.89° C 100% 1015.1 hPa 0 mm - - -
1788284066 33.33° C 100% 1015.1 hPa 0 mm - - -
1788283766 32.78° C 100% 1015.1 hPa 0 mm - - -
1788283466 33.33° C 100% 1015 hPa 0 mm - - -
1788283166 32.78° C 100% 1015.1 hPa 0 mm - - -
1788282866 32.22° C 100% 1015.2 hPa 0 mm - - -
1788282566 31.67° C 100% 1015.2 hPa 0 mm - - -
1788282266 32.22° C 100% 1015.3 hPa 0 mm - - -
1788281966 32.22° C 100% 1015.4 hPa 0 mm - - -
1788281666 33.33° C 100% 1015.4 hPa 0 mm - - -

* Rain latest hour (hover to see other rain measurements)
** Current wind speed in m/s (hover to see current wind gust speed)